Change the Weather History Date:

Friday, August 15, 2014

  Actual Average Record
Temperature  
Mean Temperature 77 °F 79 °F  
Max Temperature 87 °F 88 °F 105 °F (2007)
Min Temperature 67 °F 70 °F 51 °F (1992)
Degree Days  
Heating Degree Days 0 0  
Month to date heating degree days 0 0  
Since 1 June heating degree days 0 5  
Since 1 July heating degree days 0 0  
Cooling Degree Days 12 14  
Month to date cooling degree days 180 218  
Year to date cooling degree days 1202 1193  
Since 1 June cooling degree days 940 1019  
Growing Degree Days 26 (Base 50)    
Moisture  
Dew Point 66 °F    
Average Humidity 68    
Maximum Humidity 87    
Minimum Humidity 48    
Precipitation  
Precipitation 0.09 in 0.09 in 4.31 in (1946)
Month to date precipitation 3.27 1.52  
Year to date precipitation 27.18 26.28  
Snow  
Snow 0.00 in 0.00 in 0.00 in (2012)
Month to date snowfall 0.0 0.0  
Since 1 June snowfall 0.0 0.0  
Since 1 July snowfall 0.0 0.0  
Snow Depth 0.00 in    
Sea Level Pressure  
Sea Level Pressure 29.99 in    
Wind  
Wind Speed 5 mph (ENE)    
Max Wind Speed 13 mph    
Max Gust Speed 15 mph    
Visibility 9 miles    
Events Rain    
T = Trace of Precipitation, MM = Missing Value Source: NWS Daily Summary

Daily Weather History Graph

Daily Weather History Graph

Search for Another Location

Airport or City:

Trip Planner

Search our weather history database for the weather conditions in past years. The results will help you decide how hot, cold, wet, or windy it might be!

Date:

Astronomy

Aug. 15, 2014 Rise Set
Actual Time 6:15 AM CDT 7:55 PM CDT
Civil Twilight 5:46 AM CDT 8:24 PM CDT
Nautical Twilight 5:12 AM CDT 8:58 PM CDT
Astronomical Twilight 4:36 AM CDT 9:34 PM CDT
Moon 11:02 PM CDT (8/15) 11:54 AM CDT (8/15)
Length of Visible Light 14h 37m
Length of Day
13h 40m
Waning Gibbous, 69% of the Moon is Illuminated
Aug 15
Waning Gibbous
Aug 17
Last Quarter
Aug 25
New
Sep 2
First Quarter
Sep 8
Full

Hourly Weather History & Observations

Time (CDT) Temp. Heat Index Dew Point Humidity Pressure Visibility Wind Dir Wind Speed Gust Speed Precip Events Conditions
12:51 AM 72.0 °F - 63.0 °F 73% 30.01 in 10.0 mi ESE 3.5 mph - N/A   Scattered Clouds
1:51 AM 71.6 °F - 62.6 °F 73% 30.03 in 10.0 mi Calm Calm - N/A   Partly Cloudy
2:51 AM 70.0 °F - 63.0 °F 78% 29.99 in 10.0 mi ENE 3.5 mph - N/A   Partly Cloudy
3:51 AM 70.0 °F - 63.0 °F 78% 30.00 in 10.0 mi East 3.5 mph - N/A   Mostly Cloudy
4:51 AM 69.1 °F - 62.1 °F 78% 30.00 in 10.0 mi Calm Calm - N/A   Partly Cloudy
5:51 AM 68.0 °F - 64.0 °F 87% 30.00 in 10.0 mi ESE 6.9 mph - N/A   Scattered Clouds
6:51 AM 68.0 °F - 63.0 °F 84% 30.01 in 9.0 mi East 5.8 mph - N/A   Mostly Cloudy
7:51 AM 72.0 °F - 64.0 °F 76% 30.04 in 9.0 mi East 6.9 mph - N/A   Mostly Cloudy
8:51 AM 75.2 °F - 64.4 °F 69% 30.06 in 10.0 mi East 6.9 mph - N/A   Scattered Clouds
9:51 AM 78.8 °F - 64.4 °F 61% 30.05 in 10.0 mi Variable 5.8 mph - N/A   Mostly Cloudy
10:51 AM 82.0 °F 83.8 °F 64.9 °F 56% 30.01 in 10.0 mi SE 9.2 mph - N/A   Mostly Cloudy
11:51 AM 84.0 °F 85.8 °F 64.9 °F 53% 30.01 in 10.0 mi ESE 9.2 mph - N/A   Mostly Cloudy
12:51 PM 84.2 °F 85.6 °F 64.4 °F 51% 30.01 in 10.0 mi Variable 4.6 mph - N/A   Mostly Cloudy
1:51 PM 86.0 °F 87.6 °F 64.9 °F 49% 29.97 in 10.0 mi SE 6.9 mph - N/A   Mostly Cloudy
2:51 PM 86.0 °F 87.6 °F 64.9 °F 49% 29.96 in 10.0 mi Variable 4.6 mph - N/A   Overcast
3:51 PM 87.8 °F 90.4 °F 66.2 °F 49% 29.98 in 10.0 mi Calm Calm - N/A   Overcast
4:51 PM 84.9 °F 88.2 °F 68.0 °F 57% 29.95 in 10.0 mi WNW 5.8 mph - N/A   Overcast
5:51 PM 82.9 °F 86.5 °F 69.1 °F 63% 29.95 in 10.0 mi NW 3.5 mph - N/A   Overcast
6:51 PM 81.0 °F 84.1 °F 69.1 °F 67% 29.94 in 9.0 mi NNE 3.5 mph - 0.00 in Rain Light Rain
7:51 PM 80.1 °F 83.2 °F 70.0 °F 71% 29.93 in 9.0 mi ENE 5.8 mph - 0.00 in Rain Light Rain
8:51 PM 79.0 °F - 72.0 °F 79% 29.94 in 8.0 mi NNE 5.8 mph - 0.00 in Rain Light Rain
9:51 PM 77.0 °F - 71.6 °F 83% 29.97 in 8.0 mi NE 5.8 mph - N/A   Overcast
10:46 PM 75.2 °F - 73.4 °F 94% 29.99 in 3.0 mi NW 6.9 mph - 0.05 in Rain Heavy Rain
10:51 PM 75.2 °F - 73.4 °F 94% 29.99 in 3.0 mi NW 4.6 mph - N/A Rain Light Rain
11:14 PM 75.2 °F - 71.6 °F 89% 29.98 in 5.0 mi West 8.1 mph - 0.02 in Rain Light Rain